Find Starlink 3909

NORAD ID: 52452 Int'l Des: 2022-049 Owner: SPXS Country: US Constellation: starlink operational
LEOCIRCULAR

当前视图

正在加载3D地球...

About Starlink 3909

Starlink 3909 (NORAD 52452) is a starlink constellation satellite (v1.5) launched May 6, 2022 by SPXS of US. It operates in LEO, CIRCULAR orbit with a mass of 297.00 kg.

即将过境

Passes for default location (London). Set your location on the main map for personalized predictions.

高度历史

Loading altitude history...

两行轨道根数

1 52452U 22049B 26263.16670139 .00702630 00000-0 20092-1 0 9999
2 52452 53.1684 272.6041 0001490 85.2143 21.1893 15.33354978 5799
Epoch: Sep 20, 2026 • Age: 14 hours

当前状态

高度 465.6 km
远地点 / 近地点 N/A
速度 7.64 km/s
星下点 36.58°N, 36.5°E
发射日期 May 6, 2022
运行时间 4.3 years
类型 internet

技术详情

分类 Payload
质量 297.00 kg
干质量 220.00 kg
长度 0.20 m
跨度 9.00 m
形状 ? Box + pan
制造商 SPXS
平台类型 Starlink
阶段状态 In Orbit
所有者/国家 SPXS/US

Most Searched